Вернуться в каталог

STARLINK-5765

АктивенСвязьVLEO
NORAD 57147·PAYLOAD·🇺🇸 United States

Запущен Jun 23, 2023 с Cape Canaveral Space Force Station

Loading…

Ближайшие Пролёты (ближайшие 24 часа)

TLE

СвежийSource: CelesTrak SupGP

Эпоха: Sep 14, 2026, 21:27 UTC

1 57147C 23090AY  26257.89423611  .00015689  00000+0  56827-3 0  2570
2 57147  42.9995 275.0863 0001501 265.1724 197.1891 15.27568831    12

Отслеживайте STARLINK-5765 в реальном времени с AllMySat

Download on the App Store